Location: Poughquag
(41.6090°N, 73.6820°W)
Time: 09:55:16
(UTC-04:00)

Transit 2A - Visible Passes

Search period start: 14 October 2019 00:00
Search period end: 24 October 2019 00:00
Orbit: 600 x 959 km, 66.7° (Epoch: 13 October)

Date Brightness Start Highest point End Pass type
(mag) Time Alt. Az. Time Alt. Az. Time Alt. Az.
14 Oct 8.4 04:59:19 10° NNE 05:01:23 13° NE 05:03:25 10° ENE visible
15 Oct 6.0 06:06:42 10° NNW 06:11:03 62° ENE 06:15:20 10° SE visible
16 Oct 6.8 05:32:43 10° NNW 05:36:52 40° NE 05:40:58 10° SE visible
16 Oct 7.8 20:12:05 10° S 20:13:52 19° S 20:13:52 19° S visible
17 Oct 7.5 04:58:51 10° N 05:02:38 27° NE 05:06:21 10° ESE visible
17 Oct 6.4 06:41:56 10° NW 06:45:43 30° WSW 06:49:30 10° S visible
17 Oct 7.2 19:38:41 10° SSE 19:42:07 24° SE 19:42:07 24° SE visible
17 Oct 8.2 21:20:56 10° SW 21:22:42 20° WSW 21:22:42 20° WSW visible
18 Oct 8.0 04:26:25 15° NNE 04:28:20 19° NE 04:31:29 10° E visible
18 Oct 5.8 06:07:32 10° NW 06:11:43 47° WSW 06:15:53 10° S visible
18 Oct 7.4 19:05:43 10° SSE 19:09:14 17° ESE 19:10:14 16° E visible
18 Oct 6.7 20:46:31 10° SW 20:50:48 50° WSW 20:50:48 50° WSW visible
19 Oct 8.4 03:54:21 14° NE 03:54:21 14° NE 03:56:14 10° ENE visible
19 Oct 5.3 05:34:55 22° NW 05:37:40 76° WSW 05:42:00 10° SSE visible
19 Oct 7.8 18:33:47 10° ESE 18:35:19 11° ESE 18:36:49 10° E visible
19 Oct 5.8 20:12:19 10° SSW 20:17:53 87° ESE 20:18:44 64° NE visible
19 Oct 8.8 21:58:25 10° W 21:59:18 12° WNW 21:59:18 12° WNW visible
20 Oct 5.7 05:02:59 60° N 05:03:34 69° ENE 05:07:53 10° SE visible
20 Oct 6.0 19:38:21 10° SSW 19:43:48 59° ESE 19:46:30 27° NE visible
20 Oct 8.1 21:23:12 10° W 21:27:03 22° NW 21:27:03 22° NW visible
21 Oct 7.3 04:31:09 28° ESE 04:31:09 28° ESE 04:33:33 10° SE visible
21 Oct 7.0 06:11:44 17° W 06:12:08 17° WSW 06:15:01 10° SSW visible
21 Oct 6.4 19:04:35 10° S 19:09:45 40° ESE 19:14:05 12° NE visible
21 Oct 7.6 20:48:18 10° WSW 20:52:58 30° NW 20:54:37 24° NNW visible
22 Oct 7.0 05:39:57 20° SSW 05:39:57 20° SSW 05:41:53 10° S visible
22 Oct 7.0 18:31:08 10° SSE 18:35:44 27° ESE 18:39:59 10° NE visible
22 Oct 7.1 20:13:38 10° SW 20:18:45 41° NW 20:22:01 18° N visible
23 Oct 8.0 05:08:09 11° S 05:08:09 11° S 05:08:20 10° S visible
23 Oct 6.4 19:39:11 10° SW 19:44:34 60° WNW 19:49:17 11° NNE visible
23 Oct 8.8 21:27:26 10° NW 21:28:38 11° NW 21:29:48 10° NNW visible
